TimePDT,TemperatureF,Dew PointF,Humidity,Sea Level PressureIn,VisibilityMPH,Wind Direction,Wind SpeedMPH,Gust SpeedMPH,PrecipitationIn,Events,Conditions,WindDirDegrees,DateUTC
12:53 AM,60.1,45.0,57,29.98,10.0,Calm,Calm,-,N/A,,Clear,0,2013-10-11 07:53:00
1:53 AM,61.0,45.0,56,29.99,10.0,WNW,3.5,-,N/A,,Clear,290,2013-10-11 08:53:00
2:53 AM,60.1,45.0,57,29.99,10.0,NW,8.1,-,N/A,,Clear,320,2013-10-11 09:53:00
3:53 AM,59.0,44.1,58,29.98,10.0,NW,8.1,-,N/A,,Clear,320,2013-10-11 10:53:00
4:53 AM,57.0,44.1,62,29.99,10.0,NNW,5.8,-,N/A,,Clear,330,2013-10-11 11:53:00
5:53 AM,55.0,46.0,72,30.00,10.0,WNW,3.5,-,N/A,,Clear,300,2013-10-11 12:53:00
6:53 AM,57.0,43.0,59,30.01,10.0,NNW,5.8,-,N/A,,Clear,330,2013-10-11 13:53:00
7:53 AM,59.0,45.0,60,30.02,10.0,NW,5.8,-,N/A,,Clear,320,2013-10-11 14:53:00
8:53 AM,64.9,43.0,45,30.04,10.0,NNW,4.6,-,N/A,,Clear,340,2013-10-11 15:53:00
9:53 AM,70.0,39.9,33,30.03,10.0,Calm,Calm,-,N/A,,Clear,0,2013-10-11 16:53:00
10:53 AM,73.9,39.9,29,30.03,10.0,Calm,Calm,-,N/A,,Clear,0,2013-10-11 17:53:00
11:53 AM,75.9,37.9,25,30.01,10.0,Calm,Calm,-,N/A,,Clear,0,2013-10-11 18:53:00
12:53 PM,78.1,37.0,23,29.98,10.0,Variable,4.6,-,N/A,,Clear,0,2013-10-11 19:53:00
1:53 PM,80.1,37.0,21,29.95,10.0,Variable,3.5,-,N/A,,Clear,0,2013-10-11 20:53:00
2:53 PM,81.0,37.0,21,29.93,10.0,Variable,6.9,-,N/A,,Clear,0,2013-10-11 21:53:00
3:53 PM,81.0,37.0,21,29.92,10.0,East,6.9,-,N/A,,Clear,100,2013-10-11 22:53:00
4:53 PM,81.0,37.0,21,29.90,10.0,ESE,5.8,-,N/A,,Clear,110,2013-10-11 23:53:00
5:53 PM,79.0,37.0,22,29.90,10.0,ESE,8.1,-,N/A,,Clear,120,2013-10-12 00:53:00
6:53 PM,75.9,39.0,26,29.91,10.0,ESE,6.9,-,N/A,,Clear,120,2013-10-12 01:53:00
7:53 PM,73.0,39.9,30,29.93,10.0,Calm,Calm,-,N/A,,Clear,0,2013-10-12 02:53:00
8:53 PM,73.0,39.9,30,29.94,10.0,NNW,3.5,-,N/A,,Clear,340,2013-10-12 03:53:00
9:53 PM,68.0,43.0,40,29.95,10.0,Calm,Calm,-,N/A,,Clear,0,2013-10-12 04:53:00
10:53 PM,64.9,42.1,43,29.95,10.0,North,6.9,-,N/A,,Clear,360,2013-10-12 05:53:00
11:53 PM,66.0,44.1,45,29.95,10.0,NNW,9.2,-,N/A,,Clear,340,2013-10-12 06:53:00